Hourly Weather Roundup
Issued by NWS Central Illinois

Home | Current Version | Previous Version | Text Only | Print | Product List | Glossary On
Versions: 1 2 3 4 5 6 7 8 9 10 11 12 13 14 15 16 17 18 19 20 21 22 23 24 25 26 27 28 29 30 31 32 33 34 35 36 37 38 39 40 41 42 43 44 45 46 47 48 49 50
000
NZUS43 KILX 210110
HWRILX

Area Weather Roundup
National Weather Service Lincoln IL
800 PM CDT FRI OCT 20 2017

NOTE:  "FAIR" indicates few or no clouds below 12,000 feet, with
       no sigificant weather and/or obstructions to visibility.


CITY           SKY/WX    TMP DP  RH WIND       PRES   REMARKS
Bloomington    MOCLDY    65  48  54 S16       30.07F
Champaign      CLOUDY    64  48  56 SE9       30.10S
Danville       CLOUDY    62  48  61 SE5       30.09S
Decatur        CLEAR     64  48  56 S12       30.08S
Effingham      PTCLDY    66  49  54 SE7       30.12S
Flora          PTCLDY    62  51  67 SE7       30.11F
Galesburg      CLOUDY    70  55  58 SE6       30.00S
Jacksonville   CLOUDY    67  49  52 SE14G20   30.03R
Lacon          CLOUDY    65  44  46 S8        30.02S
Lawrenceville  PTCLDY    60  52  74 S8        30.14S
Litchfield     CLOUDY    64  51  63 SE10      30.08R
$$


CITY           SKY/WX    TMP DP  RH WIND       PRES   REMARKS
Lincoln        PTCLDY    62  50  64 S8        30.05F
Macomb         PTCLDY    63  48  58 S12       30.01F
Mattoon        CLOUDY    65  51  60 S10       30.10S
Mt Carmel AP   MOCLDY    60  49  67 SE3       30.14S
Olney-Noble AP PTCLDY    63  47  56 SE6       30.13S
Paris AP       CLOUDY    58  50  75 SE8       30.13R
Peoria         PTCLDY    68  46  45 S12       30.02S
Pontiac        PTCLDY    66  48  51 S12       30.06F
Rantoul        CLOUDY    63  51  64 S5        30.10S
Robinson       CLOUDY    58  49  71 S5        30.14S
Springfield    PTCLDY    69  49  48 S16       30.04F
Taylorville    PTCLDY    62  47  59 SE7       30.07S
$$

...REGIONAL REPORTS...


CITY           SKY/WX    TMP DP  RH WIND       PRES   REMARKS
Chicago O`Hare CLOUDY    67  49  52 S12       30.04S
Kankakee       CLOUDY    59  48  67 SE7       30.09S
Moline         PTCLDY    67  44  43 S8        29.97R
Mount Sterling CLOUDY    66  49  54 SE13G18   30.00S
Mount Vernon   CLOUDY    63  49  60 S5        30.12S
Pittsfield     CLOUDY    67  52  58 SE10      30.03S
Quincy         CLOUDY    67  50  54 S12       29.98S
Rockford       CLOUDY    66  48  52 S13       30.01F
$$


CITY           SKY/WX    TMP DP  RH WIND       PRES   REMARKS
Burlington     CLOUDY    65  49  56 S8        29.96F
Cedar Rapids   CLOUDY    67  46  47 S15G23    29.91S
Des Moines     CLOUDY    66  52  60 S16G25    29.84F
Kirksville     CLOUDY    64  52  64 S12       29.95S
Ottumwa        CLOUDY    67  49  52 S13G23    29.91R
St Louis       CLOUDY    71  50  47 SE15      30.05F
$$


CITY           SKY/WX    TMP DP  RH WIND       PRES   REMARKS
Terre Haute    PTCLDY    62  48  60 S6        30.13F
Evansville     CLOUDY    60  51  72 CALM      30.15S
Indianapolis   PTCLDY    63  51  65 SE9       30.15S
Lafayette      CLOUDY    59  50  72 CALM      30.12S
Madison        CLOUDY    65  48  54 S9        29.97S
Milwaukee      MOCLDY    67  52  58 S10       30.01F
$$






USA.gov is the U.S. government's official web portal to all federal, state and local government web resources and services.